Location: Bucquoy
(50.1391°N, 2.7097°E)
Time: 03:35:50
(UTC+00:00)

Cosmos 1378 - Pass Details

Date: 06 May 2021
Orbit: 490 x 499 km, 82.5° (Epoch: 22 June)

Event Time Altitude Azimuth Distance (km) Brightness Sun altitude
Exits shadow 00:08:59 33° 82° (E) 847 4.3 -23.1°
Drops below altitude 10° 00:12:05 10° 27° (NNE) 1,701 6.8 -23.1°
Sets 00:14:20 0° 18° (NNE) 2,591 8.1 -23.0°
